1485050400.99,36219,8.69,74262.8,-6.87,-40.41,-40.59,0,*5F
1485050402.23,36220,8.69,74260.5,-6.87,-40.35,-40.53,0,*5C
1485050403.49,36221,8.75,74260.8,-6.87,-40.35,-40.59,0,*57
1485050404.78,36222,8.75,74260.5,-6.87,-40.21,-40.41,0,*58
1485050406.07,36223,8.69,74258.8,-6.91,-40.41,-40.59,0,*51
1485050407.31,36224,8.69,74262.0,-6.87,-40.35,-40.53,0,*58
1485050408.6,36225,8.69,74262.5,-6.87,-40.41,-40.59,0,*50
1485050409.86,36226,8.69,74260.5,-6.87,-40.35,-40.59,0,*50
1485050411.12,36227,8.69,74260.0,-6.91,-40.29,-40.47,0,*54
1485050412.37,36228,8.69,74262.0,-6.87,-40.53,-40.79,0,*5C
1485050413.63,36229,8.69,74260.8,-6.87,-40.21,-40.53,0,*50
1485050414.87,36230,8.69,74262.3,-6.87,-40.35,-40.53,0,*5D
1485050416.12,36231,8.69,74260.0,-6.87,-40.53,-40.79,0,*54
1485050417.37,36232,8.69,74258.0,-6.87,-40.21,-40.53,0,*5A
1485050418.61,36233,8.69,74258.8,-6.87,-40.35,-40.53,0,*5E
1485050419.87,36234,8.69,74256.8,-6.91,-40.29,-40.47,0,*56
1485050421.1,36235,8.69,74258.8,-6.87,-40.35,-40.53,0,*58
1485050422.34,36236,8.75,74260.5,-6.87,-40.35,-40.53,0,*5B
1485050423.62,36237,8.69,74262.8,-6.87,-40.21,-40.41,0,*5C
1485050424.89,36238,8.69,74262.8,-6.87,-40.35,-40.59,0,*5F
1485050426.15,36239,8.69,74262.0,-6.87,-40.35,-40.59,0,*5E
1485050427.41,36240,8.69,74258.3,-6.87,-40.21,-40.53,0,*5F
1485050428.67,36241,8.69,74262.0,-6.85,-40.41,-40.41,0,*59
1485050429.91,36242,8.69,74260.0,-6.85,-40.35,-40.59,0,*50
1485050431.11,36243,8.69,74258.3,-6.85,-40.35,-40.53,0,*5B
1485050432.32,36244,8.69,74258.0,-6.85,-40.35,-40.53,0,*5C
1485050433.56,36245,8.69,74258.3,-6.87,-40.35,-40.53,0,*5F
1485050434.82,36246,8.69,74260.0,-6.87,-39.97,-40.15,0,*58
1485050436.04,36247,8.75,74260.5,-6.85,-40.21,-40.35,0,*5A
1485050437.24,36248,8.69,74262.3,-6.85,-40.35,-40.35,0,*50
1485050438.48,36249,8.69,74258.5,-6.85,-40.41,-40.53,0,*52
1485050439.69,36250,8.69,74260.3,-6.85,-40.03,-40.15,0,*5E
1485050440.92,36251,8.69,74262.8,-6.85,-40.35,-40.59,0,*52
1485050442.14,36252,8.69,74260.0,-6.85,-40.21,-40.35,0,*5E
1485050443.4,36253,8.69,74262.5,-6.85,-40.21,-40.41,0,*5C
1485050444.62,36254,8.69,74260.0,-6.85,-40.21,-40.35,0,*58
1485050445.86,36255,8.69,74256.8,-6.81,-40.09,-40.35,0,*57
1485050447.07,36256,8.69,74260.8,-6.85,-40.15,-40.35,0,*5D
1485050448.31,36257,8.69,74262.3,-6.81,-40.03,-40.21,0,*5A
1485050449.52,36258,8.69,74258.8,-6.81,-40.15,-40.35,0,*57
1485050450.76,36259,8.69,74258.8,-6.81,-40.29,-40.53,0,*59
1485050451.96,36260,8.69,74258.5,-6.85,-40.35,-40.35,0,*5A
1485050453.2,36261,8.69,74260.8,-6.85,-40.15,-40.21,0,*5C
1485050454.43,36262,8.69,74260.0,-6.85,-40.21,-40.53,0,*5D
1485050455.64,36263,8.69,74260.0,-6.81,-40.15,-40.35,0,*5F
1485050456.89,36264,8.75,74262.3,-6.81,-40.15,-40.29,0,*55
1485050458.15,36265,8.69,74258.8,-6.81,-39.97,-40.09,0,*52
1485050459.38,36266,8.69,74260.0,-6.81,-40.09,-40.35,0,*57
1485050460.61,36267,8.69,74256.8,-6.81,-40.29,-40.47,0,*51
1485050461.87,36268,8.69,74258.8,-6.85,-40.21,-40.41,0,*54
1485050463.08,36269,8.69,74258.8,-6.81,-39.91,-40.03,0,*52
1485050464.3,36270,8.69,74258.5,-6.81,-40.15,-40.15,0,*5F
1485050465.51,36271,8.69,74258.0,-6.81,-40.15,-40.35,0,*5C
1485050466.73,36272,8.69,74256.8,-6.81,-40.15,-40.47,0,*5A
1485050467.99,36273,8.69,74258.3,-6.81,-40.09,-40.29,0,*5E
1485050469.26,36274,8.75,74260.8,-6.81,-40.09,-40.41,0,*57
1485050470.52,36275,8.69,74256.8,-6.81,-40.29,-40.41,0,*54
1485050471.78,36276,8.69,74260.3,-6.81,-40.21,-40.59,0,*56
1485050473.04,36277,8.69,74258.8,-6.81,-40.09,-40.29,0,*5A
1485050474.3,36278,8.69,74256.8,-6.81,-40.09,-40.29,0,*55
1485050475.56,36279,8.69,74258.5,-6.81,-40.21,-40.41,0,*50
1485050476.8,36280,8.75,74262.3,-6.81,-40.09,-40.47,0,*5A
1485050478.06,36281,8.69,74258.8,-6.81,-40.09,-40.29,0,*53
1485050479.33,36282,8.69,74258.0,-6.81,-40.09,-40.21,0,*58
1485050480.59,36283,8.69,74256.5,-6.79,-40.03,-40.21,0,*54
1485050481.82,36284,8.69,74258.3,-6.81,-40.03,-40.09,0,*5E
1485050483.11,36285,8.69,74260.0,-6.79,-40.09,-40.29,0,*50
1485050484.37,36286,8.69,74258.0,-6.81,-40.21,-40.29,0,*5E
1485050485.64,36287,8.69,74262.5,-6.79,-40.21,-40.29,0,*58
1485050486.92,36288,8.69,74258.8,-6.79,-40.21,-40.29,0,*57
1485050488.21,36289,8.69,74256.5,-6.79,-40.09,-40.29,0,*5C
1485050489.47,36290,8.69,74260.8,-6.81,-40.29,-40.41,0,*5F
1485050490.71,36291,8.69,74260.3,-6.81,-40.41,-40.47,0,*56
1485050491.99,36292,8.69,74258.3,-6.79,-40.21,-40.41,0,*52
1485050493.25,36293,8.69,74258.8,-6.81,-40.29,-40.41,0,*5C
1485050494.46,36294,8.69,74260.5,-6.81,-40.47,-40.65,0,*55
1485050495.71,36295,8.69,74260.3,-6.81,-40.21,-40.41,0,*52
1485050496.97,36296,8.69,74262.0,-6.79,-40.29,-40.47,0,*58
1485050498.2,36297,8.75,74262.8,-6.81,-40.21,-40.47,0,*56
1485050499.45,36298,8.69,74260.0,-6.79,-40.29,-40.47,0,*56
1485050500.71,36299,8.69,74260.0,-6.79,-40.41,-40.65,0,*59
1485050502.0,36300,8.75,74260.5,-6.79,-40.29,-40.41,0,*50
1485050503.26,36301,8.69,74262.5,-6.79,-40.29,-40.47,0,*57
1485050504.54,36302,8.69,74258.5,-6.79,-40.29,-40.41,0,*52
1485050505.8,36303,8.69,74258.3,-6.79,-40.47,-40.59,0,*52
1485050507.06,36304,8.69,74260.0,-6.81,-40.29,-40.59,0,*5A
1485050508.35,36305,8.69,74262.0,-6.79,-40.29,-40.59,0,*5C
1485050509.61,36306,8.69,74262.5,-6.81,-40.29,-40.41,0,*51
1485050510.84,36307,8.69,74262.3,-6.81,-40.29,-40.47,0,*56
1485050512.12,36308,8.69,74260.0,-6.79,-40.21,-40.41,0,*50
1485050513.41,36309,8.75,74260.8,-6.79,-40.09,-40.21,0,*5D
1485050514.66,36310,8.69,74256.3,-6.79,-40.21,-40.47,0,*5F
1485050515.93,36311,8.69,74260.8,-6.79,-40.47,-40.59,0,*51
1485050517.21,36312,8.69,74256.3,-6.79,-40.21,-40.41,0,*5B
1485050518.47,36313,8.69,74256.5,-6.79,-40.29,-40.47,0,*54
1485050519.75,36314,8.69,74260.3,-6.79,-40.21,-40.41,0,*5D
1485050521.03,36315,8.69,74262.5,-6.79,-40.21,-40.41,0,*5C
1485050522.32,36316,8.69,74260.3,-6.79,-40.21,-40.41,0,*5F
1485050523.57,36317,8.69,74262.0,-6.79,-40.21,-40.47,0,*58
1485050524.85,36318,8.69,74262.8,-6.79,-40.21,-40.41,0,*51
1485050526.08,36319,8.69,74258.0,-6.79,-40.03,-40.03,0,*56
1485050527.33,36320,8.69,74256.5,-6.77,-40.15,-40.41,0,*53
1485050528.61,36321,8.69,74258.8,-6.75,-40.21,-40.41,0,*57
1485050529.83,36322,8.69,74258.3,-6.77,-40.15,-40.35,0,*52
1485050531.04,36323,8.69,74258.3,-6.77,-40.03,-40.15,0,*56
1485050532.31,36324,8.69,74260.0,-6.77,-39.79,-39.97,0,*56
1485050533.57,36325,8.69,74258.5,-6.75,-39.97,-40.15,0,*51
1485050534.78,36326,8.69,74260.0,-6.77,-39.85,-40.03,0,*54
1485050535.99,36327,8.69,74260.8,-6.77,-40.03,-40.35,0,*50
1485050537.25,36328,8.69,74256.5,-6.75,-40.41,-40.53,0,*5B
1485050538.47,36329,8.69,74260.3,-6.77,-40.15,-40.53,0,*59
1485050539.72,36330,8.69,74260.8,-6.75,-40.15,-40.35,0,*53
1485050540.98,36331,8.69,74258.5,-6.75,-40.35,-40.59,0,*5A
1485050542.24,36332,8.69,74258.5,-6.75,-40.21,-40.53,0,*56
1485050543.48,36333,8.69,74254.0,-6.75,-40.15,-40.35,0,*50
1485050544.73,36334,8.69,74260.8,-6.75,-40.15,-40.35,0,*57
1485050546.01,36335,8.69,74256.8,-6.75,-40.21,-40.41,0,*52
1485050547.26,36336,8.69,74256.3,-6.75,-40.21,-40.35,0,*52
1485050548.5,36337,8.69,74258.8,-6.75,-40.03,-40.15,0,*51
1485050549.73,36338,8.69,74260.0,-6.77,-40.03,-40.21,0,*5B
1485050551.0,36339,8.69,74260.0,-6.75,-40.15,-40.21,0,*5F
1485050552.27,36340,8.75,74260.5,-6.75,-40.15,-40.21,0,*51
1485050553.52,36341,8.69,74260.0,-6.75,-40.15,-40.35,0,*55
1485050554.74,36342,8.69,74258.8,-6.77,-40.21,-40.35,0,*53
1485050556.01,36343,8.69,74256.3,-6.75,-40.15,-40.21,0,*52
1485050557.23,36344,8.69,74260.3,-6.73,-39.91,-40.15,0,*56
1485050558.47,36345,8.69,74262.3,-6.75,-40.03,-40.15,0,*54
1485050559.73,36346,8.69,74262.5,-6.75,-40.21,-40.53,0,*55
1485050561.01,36347,8.69,74260.5,-6.75,-40.21,-40.41,0,*57
1485050562.28,36348,8.69,74256.8,-6.75,-40.15,-40.21,0,*59
1485050563.55,36349,8.69,74258.5,-6.73,-40.09,-40.29,0,*5B
1485050564.79,36350,8.69,74256.8,-6.69,-40.09,-40.15,0,*57
1485050566.02,36351,8.69,74260.5,-6.73,-39.97,-40.15,0,*54
1485050567.28,36352,8.69,74260.0,-6.73,-39.97,-40.29,0,*58
1485050568.52,36353,8.69,74258.5,-6.73,-39.97,-40.15,0,*56
1485050569.78,36354,8.69,74256.8,-6.69,-39.97,-40.09,0,*57
1485050571.03,36355,8.69,74258.0,-6.73,-39.91,-40.09,0,*5B
1485050572.29,36356,8.69,74262.3,-6.73,-40.09,-40.29,0,*55
1485050573.56,36357,8.69,74260.5,-6.73,-40.09,-40.29,0,*54
1485050574.82,36358,8.69,74260.5,-6.69,-40.09,-40.29,0,*50
1485050576.06,36359,8.69,74260.0,-6.73,-39.97,-40.15,0,*5C
1485050577.32,36360,8.69,74262.8,-6.69,-40.09,-40.29,0,*5B
1485050578.54,36361,8.69,74256.3,-6.69,-40.15,-40.47,0,*5F
1485050579.77,36362,8.69,74256.8,-6.69,-40.09,-40.35,0,*54
1485050581.01,36363,8.69,74256.3,-6.69,-40.09,-40.35,0,*55
1485050582.25,36364,8.69,74262.3,-6.69,-40.09,-40.15,0,*50
1485050583.47,36365,8.69,74262.8,-6.69,-40.15,-40.53,0,*5E
1485050584.7,36366,8.69,74258.3,-6.69,-40.29,-40.47,0,*57
1485050585.92,36367,8.69,74260.5,-6.69,-40.15,-40.35,0,*5C
1485050587.18,36368,8.69,74260.0,-6.69,-40.09,-40.29,0,*53
1485050588.42,36369,8.69,74260.3,-6.69,-40.15,-40.29,0,*5F
1485050589.64,36370,8.69,74256.0,-6.69,-40.15,-40.35,0,*5A
1485050590.92,36371,8.69,74258.5,-6.67,-40.21,-40.29,0,*5F
1485050592.18,36372,8.69,74258.3,-6.67,-40.03,-40.29,0,*5C
1485050593.41,36373,8.69,74262.0,-6.69,-40.09,-40.35,0,*54
1485050594.62,36374,8.69,74256.8,-6.69,-40.35,-40.47,0,*59
1485050595.86,36375,8.69,74258.8,-6.69,-40.09,-40.35,0,*52
1485050597.12,36376,8.69,74256.3,-6.67,-40.03,-40.21,0,*50
1485050598.38,36377,8.69,74262.3,-6.67,-40.03,-40.21,0,*51
1485050599.67,36378,8.69,74258.8,-6.67,-40.09,-40.29,0,*5C
1485050600.93,36379,8.69,74258.3,-6.67,-40.03,-40.29,0,*57
1485050602.16,36380,8.69,74262.5,-6.65,-40.03,-40.29,0,*53
1485050603.43,36381,8.69,74260.8,-6.67,-39.91,-40.09,0,*57
1485050604.7,36382,8.69,74258.5,-6.67,-39.91,-40.09,0,*54
1485050605.99,36383,8.69,74258.5,-6.67,-40.09,-40.29,0,*58
1485050607.25,36384,8.69,74258.8,-6.67,-40.09,-40.47,0,*57
1485050608.51,36385,8.69,74258.8,-6.67,-40.03,-40.21,0,*5C
1485050609.76,36386,8.69,74258.5,-6.67,-40.21,-40.47,0,*5F
1485050611.02,36387,8.69,74258.0,-6.65,-40.21,-40.41,0,*5A
1485050612.25,36388,8.69,74260.5,-6.65,-40.03,-40.29,0,*5B
1485050613.54,36389,8.69,74258.5,-6.67,-40.09,-40.21,0,*5A
1485050614.81,36390,8.69,74262.0,-6.65,-40.09,-40.41,0,*56
1485050616.07,36391,8.69,74260.0,-6.67,-40.03,-40.21,0,*59
1485050617.28,36392,8.69,74258.0,-6.65,-39.91,-40.03,0,*5D
1485050618.51,36393,8.69,74260.0,-6.65,-40.29,-40.53,0,*54
1485050619.74,36394,8.69,74262.0,-6.65,-40.29,-40.47,0,*56
1485050620.97,36395,8.69,74260.0,-6.65,-40.29,-40.47,0,*57
1485050622.2,36396,8.69,74262.3,-6.65,-40.21,-40.47,0,*5C
1485050623.46,36397,8.69,74256.3,-6.65,-40.41,-40.41,0,*5D
1485050624.69,36398,8.69,74262.0,-6.65,-40.29,-40.47,0,*5A
1485050625.98,36399,8.69,74256.8,-6.67,-40.29,-40.41,0,*5F
1485050627.21,36400,8.69,74260.3,-6.65,-40.03,-40.21,0,*54
1485050628.47,36401,8.69,74258.5,-6.65,-40.09,-40.21,0,*5F
1485050629.73,36402,8.69,74258.5,-6.65,-40.21,-40.41,0,*50
1485050630.97,36403,8.69,74256.5,-6.65,-40.41,-40.53,0,*54
1485050632.24,36404,8.69,74258.5,-6.65,-40.09,-40.41,0,*5C
1485050633.5,36405,8.69,74256.0,-6.65,-40.09,-40.29,0,*53
1485050634.73,36406,8.69,74262.0,-6.65,-40.03,-40.29,0,*5A
1485050635.99,36407,8.69,74256.0,-6.65,-40.21,-40.21,0,*53
1485050637.21,36408,8.69,74262.3,-6.65,-40.21,-40.47,0,*5C
1485050638.47,36409,8.69,74258.0,-6.65,-40.29,-40.41,0,*53
1485050639.7,36410,8.69,74256.5,-6.65,-40.03,-40.21,0,*55
1485050640.94,36411,8.69,74258.5,-6.63,-39.85,-40.03,0,*52
1485050642.19,36412,8.69,74262.5,-6.63,-40.03,-40.21,0,*51
1485050643.46,36413,8.69,74262.5,-6.63,-40.03,-40.41,0,*56
1485050644.68,36414,8.69,74262.0,-6.63,-40.35,-40.47,0,*52
1485050645.92,36415,8.69,74256.3,-6.63,-40.15,-40.35,0,*54
1485050647.18,36416,8.69,74258.5,-6.63,-40.03,-40.21,0,*55
1485050648.42,36417,8.69,74262.3,-6.63,-40.15,-40.35,0,*56
1485050649.69,36418,8.69,74256.5,-6.63,-40.15,-40.41,0,*5A
1485050650.95,36419,8.69,74256.8,-6.63,-39.97,-40.15,0,*5E
1485050652.15,36420,8.69,74260.0,-6.61,-40.03,-40.35,0,*57
1485050653.41,36421,8.69,74256.8,-6.63,-40.03,-40.21,0,*51
1485050654.65,36422,8.69,74256.3,-6.63,-40.15,-40.35,0,*50
1485050655.89,36423,8.69,74258.0,-6.63,-40.15,-40.15,0,*53
1485050657.12,36424,8.69,74258.3,-6.63,-40.03,-40.15,0,*53
1485050658.38,36425,8.69,74260.0,-6.63,-40.03,-40.21,0,*55
1485050659.65,36426,8.69,74258.0,-6.63,-40.15,-40.41,0,*57
1485050660.88,36427,8.69,74258.3,-6.63,-40.03,-40.15,0,*50
1485050662.11,36428,8.69,74258.5,-6.61,-40.03,-40.21,0,*5A
1485050663.34,36429,8.69,74260.0,-6.61,-40.35,-40.59,0,*51
1485050664.58,36430,8.69,74256.5,-6.61,-40.35,-40.59,0,*59
1485050665.83,36431,8.69,74260.8,-6.63,-39.97,-40.03,0,*53
1485050667.03,36432,8.69,74258.5,-6.61,-40.03,-40.35,0,*54
1485050668.31,36433,8.69,74260.0,-6.63,-40.21,-40.41,0,*54
1485050669.51,36434,8.69,74260.5,-6.61,-40.35,-40.47,0,*52
1485050670.77,36435,8.69,74258.8,-6.63,-40.35,-40.41,0,*57
1485050672.05,36436,8.69,74258.0,-6.63,-40.21,-40.41,0,*51
1485050673.32,36437,8.69,74256.3,-6.63,-40.15,-40.41,0,*57
1485050674.56,36438,8.69,74256.5,-6.63,-40.15,-40.35,0,*5B
1485050675.81,36439,8.69,74260.3,-6.63,-40.21,-40.47,0,*58
1485050677.07,36440,8.69,74262.0,-6.61,-40.21,-40.41,0,*52
1485050678.32,36441,8.69,74256.8,-6.61,-39.97,-40.21,0,*56
1485050679.55,36442,8.69,74260.3,-6.63,-40.03,-40.35,0,*51
1485050680.77,36443,8.69,74258.5,-6.61,-40.21,-40.35,0,*52
1485050682.01,36444,8.69,74258.8,-6.61,-40.35,-40.41,0,*53
1485050683.25,36445,8.69,74256.5,-6.61,-40.15,-40.41,0,*50
1485050684.49,36446,8.69,74258.0,-6.61,-40.15,-40.41,0,*53
1485050685.75,36447,8.69,74262.0,-6.61,-39.97,-40.21,0,*50
1485050686.97,36448,8.69,74258.3,-6.61,-39.97,-40.03,0,*5F
1485050688.18,36449,8.69,74258.8,-6.61,-39.85,-40.03,0,*5D
1485050689.39,36450,8.69,74258.8,-6.61,-40.03,-40.15,0,*52
1485050690.62,36451,8.69,74258.3,-6.59,-39.97,-40.15,0,*5B
1485050691.88,36452,8.69,74256.5,-6.59,-39.97,-40.29,0,*57
1485050693.12,36453,8.69,74258.0,-6.59,-40.15,-40.29,0,*52
1485050694.36,36454,8.69,74256.3,-6.59,-39.97,-40.35,0,*5C
1485050695.62,36455,8.69,74258.5,-6.59,-39.97,-40.09,0,*52
1485050696.88,36456,8.69,74258.5,-6.57,-39.91,-39.97,0,*50
1485050698.13,36457,8.69,74254.0,-6.57,-39.91,-40.15,0,*55
1485050699.37,36458,8.69,74260.0,-6.59,-40.15,-40.29,0,*59
1485050700.63,36459,8.69,74258.3,-6.59,-39.97,-40.09,0,*5E
1485050701.9,36460,8.69,74256.8,-6.57,-39.97,-40.15,0,*57
1485050703.16,36461,8.69,74258.0,-6.57,-39.97,-40.15,0,*56
1485050704.45,36462,8.69,74258.5,-6.57,-40.09,-40.41,0,*5D
1485050705.74,36463,8.69,74254.8,-6.57,-39.97,-40.29,0,*5B
1485050707.0,36464,8.69,74258.5,-6.59,-40.09,-40.29,0,*5B
1485050708.24,36465,8.69,74256.0,-6.59,-39.91,-40.29,0,*55
1485050709.53,36466,8.69,74256.5,-6.57,-39.97,-40.29,0,*5E
1485050710.77,36467,8.69,74258.5,-6.57,-40.15,-40.35,0,*56
1485050712.03,36468,8.69,74258.0,-6.55,-39.97,-40.21,0,*5A
1485050713.26,36469,8.69,74260.0,-6.55,-40.21,-40.35,0,*5D
1485050714.53,36470,8.69,74256.5,-6.57,-40.15,-40.41,0,*53
1485050715.82,36471,8.69,74256.8,-6.57,-39.97,-40.29,0,*58
1485050717.08,36472,8.69,74258.0,-6.57,-40.35,-40.41,0,*53
1485050718.35,36473,8.69,74256.8,-6.57,-39.91,-40.09,0,*5E
1485050719.56,36474,8.69,74258.8,-6.55,-39.85,-40.03,0,*54
1485050720.79,36475,8.69,74256.8,-6.55,-40.29,-40.47,0,*5D
1485050722.03,36476,8.69,74258.5,-6.55,-40.03,-40.21,0,*56
1485050723.27,36477,8.69,74258.8,-6.55,-39.91,-40.21,0,*52
1485050724.51,36478,8.69,74258.3,-6.55,-40.03,-40.09,0,*52
1485050725.74,36479,8.69,74256.0,-6.55,-40.03,-40.21,0,*59
1485050726.99,36480,8.69,74260.3,-6.55,-39.85,-40.09,0,*55
1485050728.22,36481,8.69,74258.8,-6.55,-40.29,-40.47,0,*56
1485050729.48,36482,8.69,74258.0,-6.55,-40.09,-40.21,0,*57
1485050730.74,36483,8.69,74256.8,-6.53,-40.03,-40.29,0,*52
1485050731.95,36484,8.69,74262.3,-6.55,-39.85,-40.03,0,*5B
1485050733.21,36485,8.69,74256.0,-6.53,-39.91,-40.09,0,*53
1485050734.44,36486,8.69,74258.5,-6.55,-40.29,-40.35,0,*54
1485050735.7,36487,8.69,74256.8,-6.53,-40.09,-40.35,0,*51
1485050736.94,36488,8.69,74256.3,-6.55,-40.09,-40.35,0,*58
1485050738.2,36489,8.69,74258.5,-6.55,-40.09,-40.29,0,*54
1485050739.46,36490,8.69,74258.3,-6.53,-40.09,-40.35,0,*57
1485050740.72,36491,8.69,74256.0,-6.53,-40.03,-40.21,0,*59
1485050741.97,36492,8.69,74258.3,-6.53,-40.29,-40.47,0,*52
1485050743.21,36493,8.69,74256.0,-6.53,-40.21,-40.35,0,*5E
1485050744.48,36494,8.69,74258.3,-6.55,-40.09,-40.29,0,*58
1485050745.71,36495,8.69,74258.8,-6.55,-40.03,-40.21,0,*5B
1485050746.95,36496,8.69,74258.5,-6.55,-40.09,-40.35,0,*57
1485050748.19,36497,8.69,74258.8,-6.55,-40.09,-40.35,0,*56
1485050749.44,36498,8.69,74254.8,-6.53,-40.29,-40.35,0,*5D
1485050750.67,36499,8.69,74252.5,-6.55,-40.03,-40.29,0,*5F
1485050751.92,36500,8.69,74258.0,-6.53,-40.29,-40.47,0,*58
1485050753.17,36501,8.69,74258.5,-6.53,-40.29,-40.47,0,*59
1485050754.42,36502,8.69,74258.8,-6.53,-40.29,-40.47,0,*5A
1485050755.67,36503,8.69,74258.3,-6.53,-40.21,-40.47,0,*53
1485050756.93,36504,8.69,74256.0,-6.53,-40.03,-40.21,0,*54
1485050758.17,36505,8.69,74256.8,-6.55,-39.91,-40.21,0,*56
1485050759.45,36506,8.69,74258.8,-6.53,-40.09,-40.29,0,*54
1485050760.71,36507,8.69,74256.5,-6.53,-40.03,-40.21,0,*57
1485050761.95,36508,8.69,74256.3,-6.55,-40.03,-40.21,0,*5E
1485050763.2,36509,8.69,74260.8,-6.53,-40.03,-40.29,0,*51
1485050764.46,36510,8.69,74256.3,-6.53,-39.85,-40.09,0,*5B
1485050765.71,36511,8.69,74258.8,-6.53,-40.21,-40.35,0,*55
1485050766.96,36512,8.69,74260.3,-6.53,-40.29,-40.35,0,*5E
1485050768.21,36513,8.69,74260.0,-6.53,-40.21,-40.47,0,*52
1485050769.49,36514,8.69,74258.0,-6.53,-40.09,-40.21,0,*5F
1485050770.75,36515,8.69,74260.5,-6.53,-40.03,-40.21,0,*54
1485050772.03,36516,8.69,74256.8,-6.53,-40.09,-40.29,0,*55
1485050773.24,36517,8.69,74256.8,-6.51,-40.03,-40.15,0,*53
1485050774.48,36518,8.69,74256.8,-6.51,-39.79,-40.03,0,*58
1485050775.71,36519,8.69,74256.8,-6.51,-40.03,-40.21,0,*5A
1485050776.95,36520,8.69,74258.0,-6.51,-40.03,-40.29,0,*58
1485050778.18,36521,8.69,74254.8,-6.51,-40.47,-40.59,0,*5E
1485050779.42,36522,8.69,74258.5,-6.51,-40.15,-40.21,0,*55
1485050780.68,36523,8.69,74254.0,-6.51,-39.97,-40.21,0,*50
1485050781.94,36524,8.69,74260.3,-6.51,-39.97,-40.41,0,*51
1485050783.19,36525,8.69,74256.0,-6.51,-40.21,-40.41,0,*53
1485050784.41,36526,8.69,74260.8,-6.47,-40.15,-40.35,0,*53
1485050785.64,36527,8.69,74258.8,-6.51,-40.03,-40.21,0,*57
1485050786.87,36528,8.69,74254.8,-6.51,-39.97,-40.15,0,*5C
1485050788.12,36529,8.69,74256.5,-6.51,-40.21,-40.29,0,*51
1485050789.36,36530,8.69,74256.3,-6.47,-40.09,-40.15,0,*5B
1485050790.57,36531,8.69,74256.5,-6.47,-39.91,-40.15,0,*55
1485050791.78,36532,8.69,74256.8,-6.51,-40.03,-40.15,0,*54
1485050793.01,36533,8.69,74258.3,-6.51,-39.97,-40.15,0,*56
1485050794.24,36534,8.69,74258.3,-6.47,-39.97,-40.15,0,*56
1485050795.5,36535,8.69,74258.8,-6.51,-40.29,-40.41,0,*5A
1485050796.76,36536,8.69,74258.8,-6.47,-40.09,-40.21,0,*5A
1485050798.0,36537,8.69,74260.3,-6.47,-39.91,-40.09,0,*5E
1485050799.24,36538,8.69,74258.8,-6.47,-40.09,-40.35,0,*51
1485050800.5,36539,8.69,74256.0,-6.47,-40.09,-40.21,0,*55
1485050801.75,36540,8.69,74256.0,-6.47,-39.97,-40.21,0,*52
1485050802.99,36541,8.69,74258.3,-6.47,-40.15,-40.29,0,*5F
1485050804.25,36542,8.69,74256.3,-6.47,-39.97,-40.21,0,*50
1485050805.53,36543,8.69,74258.3,-6.45,-40.09,-40.21,0,*5A
1485050806.79,36544,8.69,74260.5,-6.45,-39.91,-39.97,0,*51
1485050808.07,36545,8.69,74256.3,-6.45,-39.97,-40.21,0,*55
1485050809.33,36546,8.69,74256.5,-6.45,-39.97,-40.15,0,*51
1485050810.56,36547,8.69,74258.8,-6.45,-39.91,-40.15,0,*56
1485050811.83,36548,8.69,74258.0,-6.45,-39.91,-40.09,0,*54
1485050813.08,36549,8.69,74256.0,-6.45,-39.97,-40.15,0,*5E
1485050814.31,36550,8.69,74256.3,-6.43,-40.09,-40.35,0,*5B
1485050815.55,36551,8.69,74260.0,-6.45,-40.15,-40.35,0,*51
1485050816.81,36552,8.69,74256.0,-6.43,-40.09,-40.21,0,*5C
1485050818.09,36553,8.69,74256.5,-6.45,-39.97,-40.09,0,*58
1485050819.34,36554,8.69,74258.3,-6.45,-40.21,-40.35,0,*53
1485050820.6,36555,8.69,74256.0,-6.43,-40.09,-40.21,0,*5B
1485050821.81,36556,8.69,74258.0,-6.43,-39.91,-40.15,0,*50
1485050823.06,36557,8.69,74258.3,-6.45,-39.97,-40.15,0,*51
1485050824.29,36558,8.69,74254.5,-6.43,-39.97,-40.15,0,*58
1485050825.55,36559,8.69,74256.3,-6.43,-39.97,-40.21,0,*5E
1485050826.78,36560,8.69,74254.5,-6.43,-40.15,-40.21,0,*50
1485050828.04,36561,8.69,74260.5,-6.45,-40.09,-40.35,0,*5F
1485050829.27,36562,8.69,74256.0,-6.43,-39.97,-40.15,0,*51
1485050830.53,36563,8.69,74254.3,-6.45,-39.91,-40.09,0,*5D
1485050831.79,36564,8.69,74256.8,-6.43,-40.09,-40.21,0,*59
1485050833.05,36565,8.69,74258.0,-6.43,-39.97,-40.09,0,*5B
1485050834.28,36566,8.69,74256.3,-6.41,-40.03,-40.15,0,*54
1485050835.53,36567,8.69,74258.5,-6.41,-40.03,-40.29,0,*5A
1485050836.79,36568,8.69,74256.8,-6.43,-40.21,-40.41,0,*59
1485050838.07,36569,8.69,74256.5,-6.41,-40.09,-40.29,0,*5E
1485050839.3,36570,8.69,74256.5,-6.43,-40.21,-40.53,0,*53
1485050840.52,36571,8.69,74252.8,-6.43,-40.21,-40.53,0,*52
1485050841.77,36572,8.69,74256.0,-6.43,-40.21,-40.41,0,*52
1485050842.98,36573,8.69,74256.3,-6.43,-40.15,-40.35,0,*57
1485050844.22,36574,8.69,74258.3,-6.43,-40.09,-40.35,0,*5D
1485050845.45,36575,8.69,74252.8,-6.41,-40.03,-40.15,0,*56
1485050846.67,36576,8.69,74256.5,-6.43,-39.97,-40.35,0,*56
1485050847.89,36577,8.69,74258.0,-6.43,-40.15,-40.35,0,*53
1485050849.15,36578,8.69,74258.5,-6.43,-40.09,-40.21,0,*54
1485050850.41,36579,8.69,74258.8,-6.41,-40.09,-40.15,0,*50
1485050851.66,36580,8.69,74256.5,-6.43,-40.09,-40.21,0,*53
1485050852.9,36581,8.69,74258.0,-6.43,-40.09,-40.35,0,*57
1485050854.18,36582,8.69,74256.8,-6.41,-40.09,-40.29,0,*5B
1485050855.41,36583,8.69,74258.3,-6.41,-40.03,-40.15,0,*5F
1485050856.64,36584,8.69,74256.5,-6.41,-40.03,-40.15,0,*58
1485050857.88,36585,8.69,74256.5,-6.41,-39.91,-40.15,0,*5C
1485050859.13,36586,8.69,74256.5,-6.41,-40.03,-40.29,0,*55
1485050860.39,36587,8.69,74256.5,-6.41,-40.03,-40.29,0,*54
1485050861.64,36588,8.69,74256.8,-6.41,-40.03,-40.29,0,*5B
1485050862.91,36589,8.69,74256.3,-6.41,-39.85,-40.09,0,*58
1485050864.19,36590,8.69,74258.5,-6.41,-40.09,-40.29,0,*58
1485050865.47,36591,8.69,74258.5,-6.41,-40.29,-40.29,0,*5B
1485050866.72,36592,8.69,74260.0,-6.41,-40.29,-40.35,0,*55
1485050867.95,36593,8.69,74254.3,-6.41,-40.15,-40.47,0,*5E
1485050869.2,36594,8.69,74260.5,-6.41,-40.29,-40.35,0,*53
1485050870.43,36595,8.69,74258.3,-6.39,-40.29,-40.35,0,*5D
1485050871.69,36596,8.69,74258.0,-6.41,-40.15,-40.29,0,*53
1485050872.91,36597,8.69,74258.0,-6.39,-40.15,-40.15,0,*52
1485050874.12,36598,8.69,74258.3,-6.39,-40.03,-40.15,0,*5A
1485050875.4,36599,8.69,74254.0,-6.41,-40.09,-40.29,0,*51
1485050876.64,36600,8.69,74258.8,-6.41,-40.15,-40.35,0,*52
1485050877.87,36601,8.69,74258.3,-6.41,-40.35,-40.53,0,*51
1485050879.08,36602,8.69,74258.5,-6.39,-40.15,-40.47,0,*5A
1485050880.3,36603,8.69,74256.0,-6.39,-40.15,-40.35,0,*5E
1485050881.53,36604,8.69,74252.5,-6.41,-40.03,-40.15,0,*53
1485050882.81,36605,8.69,74260.3,-6.41,-40.09,-40.29,0,*57
1485050884.04,36606,8.69,74258.0,-6.41,-40.03,-40.15,0,*51
1485050885.3,36607,8.69,74258.8,-6.41,-40.09,-40.35,0,*58
1485050886.55,36608,8.69,74258.0,-6.41,-40.29,-40.47,0,*50
1485050887.78,36609,8.69,74258.0,-6.39,-40.29,-40.35,0,*5B
1485050888.98,36610,8.69,74256.0,-6.39,-40.03,-40.15,0,*59
1485050890.22,36611,8.69,74256.5,-6.39,-40.03,-40.09,0,*55
1485050891.48,36612,8.69,74258.8,-6.39,-40.09,-40.29,0,*5E
1485050892.73,36613,8.69,74258.8,-6.41,-40.03,-40.29,0,*5A
1485050893.97,36614,8.69,74256.3,-6.41,-40.15,-40.35,0,*57
1485050895.21,36615,8.69,74256.0,-6.39,-40.09,-40.15,0,*56
1485050896.46,36616,8.69,74256.3,-6.39,-40.29,-40.29,0,*58
1485050897.71,36617,8.69,74254.3,-6.39,-40.29,-40.29,0,*59
1485050898.94,36618,8.69,74254.5,-6.39,-40.29,-40.35,0,*5B
1485050900.18,36619,8.69,74258.5,-6.39,-39.85,-40.09,0,*5D
1485050901.42,36620,8.69,74256.8,-6.39,-39.91,-40.09,0,*52
1485050902.62,36621,8.69,74256.0,-6.39,-40.03,-40.15,0,*5B
1485050903.86,36622,8.69,74256.0,-6.39,-40.29,-40.53,0,*52
1485050905.06,36623,8.69,74256.5,-6.39,-40.35,-40.47,0,*5B
1485050906.32,36624,8.69,74258.0,-6.39,-40.09,-40.29,0,*5B
1485050907.58,36625,8.69,74258.0,-6.37,-39.85,-40.09,0,*5C